Meteo Giornale » Osservazioni meteo Italia » Messina

ore: 15:55 - Osservazioni Meteo Messina
Lat. 38° 12' N Lon. 15° 33' E Alt. 59 metri s.l.m.

poco_nuvoloso Europe/Rome

25 °C

Poco Nuvoloso

Temp. 24 Ore

19 °C

25 °C

Nord-Ovest

20.3 Km/h

Dew point 12 °C

Umidità 44 %

Visibilità  10 Km

Il sole sorge alle ore 05:36

Il sole tramonta alle ore 20:14

Data e Ora Cielo e Fenomeni T °C DP °C Um. % Pres. hPa Vis. km Vento km/h
Oggi h: 15:55 poco_nuvoloso Poco Nuvoloso 25 12 44 1018 10 NO 20.3
Oggi h: 14:55 poco_nuvoloso Poco Nuvoloso 25 12 44 1018 10 N/NO 16.7
Oggi h: 13:55 poco_nuvoloso Poco Nuvoloso 25 14 50 1018 10 N/NO 18.5
Oggi h: 12:55 poco_nuvoloso Poco Nuvoloso 25 13 47 1018 10 NO 20.3
Oggi h: 11:55 poco_nuvoloso Poco Nuvoloso 24 12 47 1018 10 N/NO 16.7
Oggi h: 10:55 poco_nuvoloso Poco Nuvoloso 24 13 50 1018 10 N/NO 16.7
Oggi h: 09:55 poco_nuvoloso Poco Nuvoloso 23 14 56 1018 10 N 14.8
Oggi h: 08:55 poco_nuvoloso Poco Nuvoloso 22 14 60 1018 10 N 13
Oggi h: 07:55 poco_nuvoloso Poco Nuvoloso 21 14 64 1018 10 N/NE 13
Oggi h: 06:55 sereno Sereno 20 13 64 1018 10 N/NE 13
Oggi h: 05:55 poco_nuvoloso Poco Nuvoloso 19 13 68 1018 10 N 9.3
Oggi h: 04:55 poco_nuvoloso Poco Nuvoloso 19 13 68 1018 10 N 9.3
Oggi h: 03:55 sereno Sereno 20 14 68 1018 10 N/NO 14.8
Oggi h: 02:55 sereno Sereno 20 14 68 1018 10 NO 13
Oggi h: 01:55 sereno Sereno 20 17 82 1018 10 N/NO 14.8
Oggi h: 00:55 sereno Sereno 20 16 77 1018 10 N 9.3
Ieri h: 23:55 sereno Sereno 20 16 77 1018 10 NO 16.7
Ieri h: 21:55 poco_nuvoloso Poco Nuvoloso 21 16 73 1018 10 N 7.4
Ieri h: 20:55 poco_nuvoloso Poco Nuvoloso 21 15 68 1017 10 N/NE 9.3
Ieri h: 19:55 poco_nuvoloso Poco Nuvoloso 22 16 68 1017 10 N 13
Ieri h: 18:55 poco_nuvoloso Poco Nuvoloso 23 15 60 1016 10 N/NO 16.7
Ieri h: 17:55 poco_nuvoloso Poco Nuvoloso 23 14 56 1016 10 NO 22.2
Ieri h: 16:55 poco_nuvoloso Poco Nuvoloso 24 13 50 1017 10 N 14.8